KK4URH Weather Reports


time (UTC)temp
F
wind
direction
speed
knots
gust
knots
rain 1hr
in
rain 24hr
in
rain mn
in
humidity
%
barometer
mb
20260508064508 53 81 0.0 0.0 0.00 0.00 0.00 78 1013.2
20260508063006 53 81 0.0 0.0 0.00 0.00 0.00 78 1013.1
20260508061506 53 81 0.0 0.0 0.00 0.00 0.00 78 1013.1
20260508060006 53 81 0.0 0.0 0.00 0.00 0.00 78 1013.1
20260508054501 53 81 0.0 0.0 0.00 0.00 0.00 78 1013.0
20260508053107 53 81 0.0 0.0 0.00 0.00 0.00 78 1013.2
20260508051606 54 81 0.0 0.0 0.00 0.00 0.00 78 1013.0
20260508050057 54 81 0.0 0.0 0.00 0.00 0.00 78 1013.0
20260508044605 54 81 0.0 0.0 0.00 0.00 0.00 78 1013.0
20260508043055 54 81 0.0 0.0 0.00 0.00 0.00 78 1012.8
20260508041553 54 81 0.0 0.0 0.00 0.00 0.00 78 1013.0
20260508040052 54 81 0.0 0.0 0.00 0.00 0.00 78 1012.9
20260508034553 54 81 0.0 0.0 0.00 0.00 0.00 78 1012.7
20260508033051 54 81 0.0 0.0 0.00 0.00 0.00 78 1012.5
20260508031545 54 81 0.0 0.0 0.00 0.00 0.00 78 1012.3
20260508030046 54 81 0.0 0.0 0.00 0.00 0.00 78 1012.2
20260508024554 54 81 0.0 0.0 0.00 0.00 0.00 77 1012.1
20260508023010 54 81 0.0 0.0 0.00 0.00 0.00 77 1011.8
20260508021510 54 81 0.0 0.0 0.00 0.00 0.00 77 1011.9
20260508020012 54 83 0.0 0.0 0.00 0.00 0.00 77 1011.4
20260508014510 54 83 0.0 0.0 0.00 0.00 0.00 77 1011.5
20260508013003 54 83 0.0 0.0 0.00 0.00 0.00 77 1011.2
20260508011502 55 80 0.0 0.0 0.00 0.00 0.00 77 1011.0
20260508010059 55 81 0.0 0.0 0.00 0.00 0.00 77 1010.6
20260508004601 55 82 0.0 0.0 0.00 0.00 0.00 76 1010.7
20260508003059 55 82 0.0 0.0 0.00 0.00 0.00 76 1011.0
20260508001559 55 84 0.0 0.9 0.00 0.00 0.00 75 1011.0
20260508000052 55 84 0.0 2.6 0.00 0.00 0.00 74 1010.2
20260507234555 55 76 0.9 3.5 0.00 0.00 0.00 74 1009.2
20260507233050 55 16 0.0 3.5 0.00 0.00 0.00 74 1009.5
20260507231552 55 19 1.7 5.2 0.00 0.00 0.00 74 1009.7
20260507230048 56 22 3.5 7.8 0.00 0.00 0.00 74 1009.2
20260507224548 56 37 2.6 5.2 0.00 0.00 0.00 74 1009.3
20260507223048 56 41 2.6 5.2 0.00 0.00 0.00 73 1008.9
20260507221544 55 42 2.6 5.2 0.00 0.00 0.00 73 1008.8
20260507220031 55 71 0.9 5.2 0.00 0.00 0.00 74 1008.9
20260507214521 55 42 1.7 5.2 0.00 0.00 0.00 74 1009.2
20260507213006 55 46 4.3 9.6 0.00 0.00 0.00 75 1008.7
20260507211506 56 55 4.3 9.6 0.00 0.00 0.00 75 1008.7
20260507210001 56 49 2.6 8.7 0.00 0.00 0.00 75 1008.3
20260507204600 57 351 3.5 8.7 0.00 0.00 0.00 75 1008.1
20260507203055 57 355 2.6 6.1 0.00 0.00 0.00 76 1008.0
20260507201606 57 40 2.6 5.2 0.00 0.00 0.00 76 1007.9
20260507200057 57 270 0.9 5.2 0.00 0.00 0.00 77 1008.1
20260507194551 58 42 2.6 7.8 0.00 0.00 0.00 77 1007.8
20260507193019 58 50 2.6 7.0 0.00 0.00 0.00 76 1007.8
20260507191517 59 16 2.6 7.0 0.00 0.00 0.00 76 1007.6
20260507190013 59 40 1.7 7.8 0.00 0.00 0.00 75 1007.8
20260507184508 61 34 4.3 9.6 0.00 0.00 0.00 75 1006.8
20260507183003 63 355 2.6 7.0 0.00 0.00 0.00 74 1007.5
20260507181559 66 51 3.5 7.8 0.00 0.00 0.00 72 1006.7
20260507180054 71 360 0.0 2.6 0.00 0.00 0.00 74 1006.8
20260507174601 70 360 0.0 3.5 0.00 0.00 0.00 75 1007.4
20260507173050 70 192 0.0 2.6 0.00 0.00 0.00 77 1007.3
20260507171600 69 178 0.0 2.6 0.00 0.00 0.00 76 1007.0
20260507170026 69 184 0.0 2.6 0.00 0.00 0.00 77 1006.9
20260507164515 69 194 0.0 0.9 0.00 0.00 0.00 77 1007.3
20260507163131 68 193 0.0 1.7 0.00 0.00 0.00 78 1007.7
20260507161541 68 186 0.0 1.7 0.00 0.00 0.00 77 1008.2
20260507160044 68 209 0.9 3.5 0.00 0.00 0.00 77 1008.6
20260507154509 68 328 0.0 1.7 0.00 0.00 0.00 77 1008.2
20260507153007 68 196 0.0 2.6 0.00 0.00 0.00 78 1007.6
20260507151502 67 206 0.0 3.5 0.00 0.00 0.00 78 1007.9
20260507150101 67 197 0.0 2.6 0.00 0.00 0.00 77 1008.1
20260507144616 67 194 0.0 3.5 0.00 0.00 0.00 78 1008.6
20260507143057 67 200 0.0 5.2 0.00 0.00 0.00 77 1008.7
20260507141615 67 196 0.0 2.6 0.00 0.00 0.00 77 1008.8
20260507140053 67 195 0.0 1.7 0.00 0.00 0.00 77 1009.0
20260507134553 67 196 0.0 2.6 0.00 0.00 0.00 77 1008.9
20260507133053 67 226 0.0 1.7 0.00 0.00 0.00 77 1009.0
20260507131552 67 240 0.0 0.9 0.00 0.00 0.00 78 1009.0
20260507130053 67 194 0.0 2.6 0.00 0.00 0.00 78 1008.8
20260507124548 67 173 0.0 3.5 0.00 0.00 0.00 78 1008.8
20260507123049 67 197 0.0 4.3 0.00 0.00 0.00 78 1008.7
20260507121545 67 163 0.0 2.6 0.00 0.00 0.00 78 1009.0
20260507120045 66 180 0.9 3.5 0.00 0.00 0.00 78 1009.2
20260507114543 66 187 0.0 3.5 0.00 0.00 0.00 78 1009.4
20260507113042 66 191 0.0 1.7 0.00 0.00 0.00 78 1009.6
20260507111544 66 191 0.0 1.7 0.00 0.00 0.00 77 1009.5
20260507110040 66 196 0.9 1.7 0.00 0.00 0.00 77 1009.7
20260507104539 66 194 0.0 2.6 0.00 0.00 0.00 77 1009.3
20260507103041 66 195 0.0 1.7 0.00 0.00 0.00 77 1009.2
20260507101544 66 198 0.9 3.5 0.00 0.00 0.00 77 1009.1
20260507100040 66 196 0.0 2.6 0.00 0.00 0.00 78 1009.3
20260507094542 66 197 0.0 2.6 0.00 0.00 0.00 78 1009.0
20260507093036 66 167 0.0 2.6 0.00 0.00 0.00 78 1009.2
20260507091532 66 178 0.9 2.6 0.00 0.00 0.00 78 1009.1
20260507090035 65 177 0.0 1.7 0.00 0.00 0.00 78 1009.1
20260507084535 65 175 0.0 0.9 0.00 0.00 0.00 77 1009.5
20260507083029 65 173 0.0 4.3 0.00 0.00 0.00 77 1009.4
20260507081559 65 153 0.0 2.6 0.00 0.00 0.00 77 1010.1
20260507080059 65 185 0.0 2.6 0.00 0.00 0.00 77 1009.9
20260507074555 65 185 0.0 0.0 0.00 0.00 0.00 76 1010.0
20260507073101 65 185 0.0 0.0 0.00 0.00 0.00 76 1010.2
20260507071556 65 185 0.0 1.7 0.00 0.00 0.00 76 1010.0
20260507070058 65 190 0.0 0.0 0.00 0.00 0.00 75 1010.6